Location: Las Vegas
(36.1750°N, 115.1360°W)
Time: 18:38:50
(UTC-08:00)

Amateur Radio Satellites - All Passes

Search period start: 16 December 2017 18:08
Search period end: 17 December 2017 18:08
Location: Las Vegas, 36.1750°N, 115.1360°W

Satellite Date Start Highest point End Downlink Frequencies (MHz)
Time Altitude Azimuth
nSIGHT-1 16 Dec 18:10:18 18:12:25 16° 231° (SW) 18:14:32 .
XW-2F 16 Dec 18:10:31 18:12:24 13° 267° (W) 18:14:19 145.980 - 146.000
CUTE 1.7 + AOD 2 16 Dec 18:15:01 18:19:11 56° 260° (W) 18:23:24 437.475
KKS-1 16 Dec 18:21:16 18:23:29 14° 295° (WNW) 18:25:42 437.445
Oscar 11 16 Dec 18:23:06 18:25:34 15° 67° (ENE) 18:28:03 .
AO-73 16 Dec 18:38:39 18:42:21 33° 72° (ENE) 18:46:05 145.935
BEESAT 2 16 Dec 18:51:33 18:54:23 19° 110° (ESE) 18:57:14 435.950
STARS 16 Dec 18:57:26 18:59:37 14° 295° (WNW) 19:01:48 437.465
XW-2A 16 Dec 19:07:53 19:11:04 42° 261° (W) 19:14:18 145.665 - 145.685
FO-29 16 Dec 19:08:11 19:13:24 25° 92° (E) 19:18:08 435.910
HO-68 16 Dec 19:15:24 19:21:03 25° 265° (W) 19:26:44 435.675
UWE-3 16 Dec 19:23:02 19:26:36 28° 263° (W) 19:30:10 435.000/436.395/437.385
SEEDS 16 Dec 19:24:57 19:27:22 15° 267° (W) 19:29:49 437.485
CUBEBUG 2 16 Dec 19:30:19 19:32:18 13° 267° (W) 19:34:17 437.445
AAUSAT CUBESAT 2 16 Dec 19:35:07 19:38:36 26° 264° (W) 19:42:08 437.432
STRAND 1 16 Dec 19:35:47 19:40:46 57° 287° (WNW) 19:45:44 437.568
ZACube-1 16 Dec 19:42:20 19:46:03 33° 263° (W) 19:49:49 437.345
BEESAT 3 16 Dec 19:42:35 19:45:59 27° 307° (NW) 19:49:25 437.485
Max Valier Satellite 16 Dec 19:54:14 19:56:42 17° 70° (ENE) 19:59:10 145.860
RS-15 16 Dec 19:56:28 20:03:55 18° 19° (NNE) 20:11:08 29.354- 29.394
Oscar 11 16 Dec 19:57:14 20:01:18 41° 261° (W) 20:05:25 .
AO-85 16 Dec 20:09:28 20:12:52 30° 113° (ESE) 20:16:24 145.980
DELFI C3 16 Dec 20:13:15 20:17:06 50° 75° (ENE) 20:20:59 145.870
EO-88 16 Dec 20:15:59 20:18:49 22° 71° (ENE) 20:21:41 145.990 - 145.960
AO-73 16 Dec 20:16:08 20:18:40 16° 267° (W) 20:21:12 145.935
BEESAT 2 16 Dec 20:28:14 20:31:50 31° 305° (NW) 20:35:29 435.950
FALCONSAT 3 16 Dec 20:32:27 20:35:50 34° 160° (SSE) 20:39:12 435.103
FO-29 16 Dec 20:52:25 20:58:44 45° 291° (WNW) 21:04:19 435.910
TIGRISAT 16 Dec 21:05:17 21:09:25 40° 99° (E) 21:13:38 435.000
UNISAT 6 16 Dec 21:09:10 21:13:26 50° 100° (E) 21:17:47 437.425
Max Valier Satellite 16 Dec 21:27:19 21:30:18 24° 264° (W) 21:33:19 145.860
EO-88 16 Dec 21:49:45 21:52:22 19° 265° (W) 21:54:59 145.990 - 145.960
AO-85 16 Dec 21:50:23 21:53:18 20° 311° (NW) 21:56:19 145.980
SO-50 16 Dec 21:52:04 21:53:16 11° 43° (NE) 21:54:30 436.795
RS-15 16 Dec 22:09:02 22:20:24 49° 50° (NE) 22:31:07 29.354- 29.394
LO-87 16 Dec 22:10:59 22:14:30 82° 77° (ENE) 22:18:02 145.935 - 145.965
FALCONSAT 3 16 Dec 22:11:03 22:14:43 76° 175° (S) 22:18:24 435.103
ESTCUBE 1 16 Dec 22:26:23 22:30:54 88° 72° (ENE) 22:35:28 437.505/2401.250
SPROUT 16 Dec 22:34:30 22:37:48 22° 70° (ENE) 22:41:07 437.525
AIST 2D 16 Dec 22:36:36 22:40:03 48° 99° (E) 22:43:28 435.315
NANOSAT C BR1 16 Dec 22:36:38 22:38:04 11° 92° (E) 22:39:31 145.865
PRISM 16 Dec 22:37:34 22:41:34 55° 286° (WNW) 22:45:31 437.425
TIGRISAT 16 Dec 22:43:04 22:45:46 16° 293° (WNW) 22:48:29 435.000
UNISAT 6 16 Dec 22:47:36 22:49:42 13° 294° (WNW) 22:51:50 437.425
EO-79 16 Dec 22:52:08 22:55:21 21° 95° (E) 22:58:35 145.935-145.965
POLYITAN 1 16 Dec 23:15:14 23:19:13 40° 99° (E) 23:23:12 437.675
SO-50 16 Dec 23:29:43 23:34:26 82° 60° (ENE) 23:39:10 436.795
QB50P2 16 Dec 23:40:59 23:45:13 85° 283° (WNW) 23:49:28 145.880/145.840
DUCHIFAT 1 16 Dec 23:41:50 23:46:01 64° 101° (ESE) 23:50:11 145.980
VELOX 1 16 Dec 23:48:28 23:52:55 83° 255° (WSW) 23:57:24 145.980
FALCONSAT 3 16 Dec 23:50:06 23:53:46 68° 190° (S) 23:57:25 435.103
Oscar 19 17 Dec 00:01:33 00:04:12 14° 92° (E) 00:06:50 437.125/150
50 SAT 17 Dec 00:04:26 00:06:56 22° 71° (ENE) 00:09:27 437.505
NANOSAT C BR1 17 Dec 00:09:56 00:14:00 48° 286° (WNW) 00:18:03 145.865
SPROUT 17 Dec 00:10:00 00:13:32 26° 264° (W) 00:17:06 437.525
BUGSAT 1 17 Dec 00:12:23 00:15:57 29° 97° (E) 00:19:31 437.445
UKube-1 17 Dec 00:15:37 00:19:01 23° 69° (ENE) 00:22:26 .
RS-15 17 Dec 00:21:54 00:32:40 47° 252° (WSW) 00:42:57 29.354- 29.394
EO-79 17 Dec 00:27:30 00:31:03 27° 289° (WNW) 00:34:36 145.935-145.965
DX 1 17 Dec 00:35:55 00:40:14 68° 75° (ENE) 00:44:35 434.975-435.025
POLYITAN 1 17 Dec 00:52:12 00:54:38 15° 293° (WNW) 00:57:04 437.675
Gurwin Techsat 1B 17 Dec 01:02:31 01:07:33 42° 99° (E) 01:12:34 435.225
BEESAT 17 Dec 01:17:39 01:20:42 17° 65° (ENE) 01:23:43 436.000
AO-91 17 Dec 01:17:47 01:21:11 85° 281° (W) 01:24:34 145.960
YUBILEINY 17 Dec 01:19:56 01:27:21 32° 85° (E) 01:34:48 435.215
FALCONSAT 3 17 Dec 01:29:28 01:32:34 26° 204° (SSW) 01:35:39 435.103
AO-7 17 Dec 01:36:19 01:40:39 15° 91° (E) 01:44:59 .
50 SAT 17 Dec 01:37:14 01:38:49 13° 265° (W) 01:40:25 437.505
Oscar 19 17 Dec 01:38:43 01:43:51 60° 287° (WNW) 01:48:57 437.125/150
ITUPSAT 1 17 Dec 01:46:26 01:50:40 33° 70° (ENE) 01:54:54 437.325
BUGSAT 1 17 Dec 01:48:15 01:51:04 18° 291° (WNW) 01:53:54 437.445
UKube-1 17 Dec 01:51:14 01:54:53 26° 263° (W) 01:58:32 .
CUBESAT XI-V 17 Dec 02:03:43 02:06:44 17° 66° (ENE) 02:09:46 437.345
MOZHAYETS 4 17 Dec 02:08:28 02:13:00 87° 77° (ENE) 02:17:36
M-CUBED/EXP-1 PRIME 17 Dec 02:30:54 02:33:48 17° 97° (E) 02:36:34 437.505
Gurwin Techsat 1B 17 Dec 02:43:12 02:47:10 22° 294° (WNW) 02:51:07 435.225
JUGNU 17 Dec 02:51:08 02:54:13 15° 174° (S) 02:57:19 437.505
BEESAT 17 Dec 02:53:32 02:58:04 44° 261° (W) 03:02:37 436.000
PCSat 17 Dec 02:55:23 03:00:48 66° 61° (ENE) 03:06:09 145.827
ITAMSAT 1 17 Dec 02:56:56 03:01:44 37° 99° (E) 03:06:30 435.822/435.867
YUBILEINY 17 Dec 03:15:14 03:23:42 50° 282° (WNW) 03:32:16 435.215
ITUPSAT 1 17 Dec 03:24:51 03:28:29 22° 265° (W) 03:32:09 437.325
AO-7 17 Dec 03:25:54 03:34:20 87° 106° (ESE) 03:42:43 .
KKS-1 17 Dec 03:38:27 03:42:26 33° 71° (ENE) 03:46:25 437.445
CUBESAT XI-V 17 Dec 03:39:19 03:43:43 42° 262° (W) 03:48:11 437.345
BEESAT 3 17 Dec 04:00:46 04:04:41 71° 61° (ENE) 04:08:30 437.485
M-CUBED/EXP-1 PRIME 17 Dec 04:04:14 04:08:16 36° 294° (WNW) 04:12:04 437.505
STARS 17 Dec 04:13:28 04:17:18 30° 70° (ENE) 04:21:08 437.465
NO-84 17 Dec 04:34:08 04:36:54 44° 129° (SE) 04:39:49 435.350 FM
DOVE 4 17 Dec 04:34:28 04:38:51 77° 101° (E) 04:43:02 437.250
ITAMSAT 1 17 Dec 04:36:55 04:40:55 23° 294° (WNW) 04:44:56 435.822/435.867
JUGNU 17 Dec 04:39:16 04:42:26 15° 185° (S) 04:45:37 437.505
PCSat 17 Dec 04:40:49 04:43:33 14° 257° (WSW) 04:46:17 145.827
AO-85 17 Dec 04:42:21 04:45:46 19° 49° (NE) 04:49:22 145.980
CUTE-I 17 Dec 04:44:43 04:47:13 13° 92° (E) 04:49:42 437.470
BEESAT 2 17 Dec 04:47:36 04:51:35 61° 59° (ENE) 04:55:29 435.950
LilacSat-2 17 Dec 05:07:15 05:10:38 28° 97° (E) 05:13:59 437.200
NUDT-PHONESAT 17 Dec 05:09:55 05:12:30 18° 94° (E) 05:15:05 437.300
STRAND 1 17 Dec 05:11:58 05:15:10 17° 65° (ENE) 05:18:21 437.568
KKS-1 17 Dec 05:15:47 05:19:00 19° 265° (W) 05:22:14 437.445
XW-2D 17 Dec 05:17:26 05:21:01 36° 98° (E) 05:24:33 145.860 - 145.880
KAITUO 1B 17 Dec 05:18:25 05:21:34 24° 96° (E) 05:24:41 145.475/437.950
FO-29 17 Dec 05:19:53 05:22:22 12° 55° (NE) 05:24:48 435.910
AO-7 17 Dec 05:20:30 05:26:01 20° 306° (NW) 05:31:33 .
SRMSAT 17 Dec 05:32:05 05:35:12 15° 173° (S) 05:38:20 437.500
XW-2B 17 Dec 05:33:15 05:37:03 56° 100° (E) 05:40:49 145.730 - 145.750
XW-2F 17 Dec 05:42:41 05:46:31 72° 101° (ESE) 05:50:19 145.980 - 146.000
CUBEBUG 2 17 Dec 05:46:55 05:47:56 11° 92° (E) 05:48:58 437.445
STARS 17 Dec 05:50:21 05:53:37 20° 265° (W) 05:56:54 437.465
O/OREOS (USA 219) 17 Dec 05:59:31 05:59:54 10° 97° (E) 06:00:18 437.305
XW-2C 17 Dec 06:00:52 06:04:39 58° 285° (WNW) 06:08:24 145.795 - 145.815
CUTE 1.7 + AOD 2 17 Dec 06:02:39 06:06:24 29° 96° (E) 06:10:07 437.475
NO-84 17 Dec 06:12:42 06:14:21 14° 328° (NNW) 06:16:04 435.350 FM
AO-85 17 Dec 06:21:39 06:26:29 56° 244° (WSW) 06:31:34 145.980
CUTE-I 17 Dec 06:22:23 06:27:39 64° 286° (WNW) 06:32:53 437.470
XW-2A 17 Dec 06:33:10 06:34:38 12° 93° (E) 06:36:04 145.665 - 145.685
LilacSat-2 17 Dec 06:42:05 06:44:38 17° 291° (WNW) 06:47:12 437.200
NUDT-PHONESAT 17 Dec 06:43:11 06:46:16 25° 289° (WNW) 06:49:22 437.300
HO-68 17 Dec 06:43:58 06:51:09 75° 104° (ESE) 06:58:17 435.675
STRAND 1 17 Dec 06:48:54 06:53:53 52° 260° (W) 06:58:53 437.568
KAITUO 1B 17 Dec 06:52:40 06:55:20 19° 290° (WNW) 06:57:59 145.475/437.950
XW-2D 17 Dec 06:52:54 06:54:48 13° 292° (WNW) 06:56:42 145.860 - 145.880
FO-29 17 Dec 06:58:15 07:05:53 63° 72° (ENE) 07:13:35 435.910
SEEDS 17 Dec 07:09:04 07:13:18 74° 283° (WNW) 07:17:30 437.485
UWE-3 17 Dec 07:13:50 07:18:11 65° 100° (E) 07:22:39 435.000/436.395/437.385
AAUSAT CUBESAT 2 17 Dec 07:18:50 07:22:55 56° 100° (E) 07:26:58 437.432
SRMSAT 17 Dec 07:20:07 07:23:36 16° 183° (S) 07:27:04 437.500
CUBEBUG 2 17 Dec 07:20:34 07:24:48 56° 285° (WNW) 07:29:09 437.445
ZACube-1 17 Dec 07:32:09 07:36:28 53° 100° (E) 07:40:51 437.345
O/OREOS (USA 219) 17 Dec 07:34:09 07:38:41 63° 292° (WNW) 07:43:14 437.305
CUTE 1.7 + AOD 2 17 Dec 07:38:50 07:42:00 20° 291° (WNW) 07:45:09 437.475
Oscar 11 17 Dec 07:46:46 07:50:54 41° 98° (E) 07:55:01 .
TIGRISAT 17 Dec 08:01:49 08:05:17 25° 70° (ENE) 08:08:44 435.000
AO-73 17 Dec 08:04:10 08:08:34 75° 285° (WNW) 08:13:03 145.935
XW-2A 17 Dec 08:04:21 08:07:21 28° 287° (WNW) 08:10:20 145.665 - 145.685
UNISAT 6 17 Dec 08:05:38 08:09:23 30° 71° (ENE) 08:13:06 437.425
ISS 17 Dec 08:27:26 08:28:25 11° 127° (SE) 08:29:25 437.550
HO-68 17 Dec 08:33:19 08:38:05 20° 301° (WNW) 08:42:51 435.675
FO-29 17 Dec 08:45:05 08:51:12 25° 268° (W) 08:57:26 435.910
UWE-3 17 Dec 08:53:19 08:54:06 10° 295° (WNW) 08:54:53 435.000/436.395/437.385
AAUSAT CUBESAT 2 17 Dec 08:56:58 08:57:49 11° 295° (WNW) 08:58:41 437.432
Max Valier Satellite 17 Dec 08:58:54 09:02:18 33° 98° (E) 09:05:41 145.860
nSIGHT-1 17 Dec 09:08:18 09:11:22 46° 135° (SE) 09:14:29 .
AIST 2D 17 Dec 09:09:50 09:11:10 12° 68° (ENE) 09:12:32 435.315
ZACube-1 17 Dec 09:10:18 09:12:17 13° 294° (WNW) 09:14:17 437.345
SRMSAT 17 Dec 09:10:32 09:11:57 11° 193° (SSW) 09:13:24 437.500
EO-88 17 Dec 09:19:34 09:23:02 40° 99° (E) 09:26:28 145.990 - 145.960
PRISM 17 Dec 09:23:22 09:27:29 68° 76° (ENE) 09:31:38 437.425
Oscar 11 17 Dec 09:24:06 09:26:39 15° 293° (WNW) 09:29:12 .
DELFI C3 17 Dec 09:26:56 09:30:50 65° 284° (WNW) 09:34:42 145.870
TIGRISAT 17 Dec 09:38:27 09:41:53 23° 264° (W) 09:45:18 435.000
UNISAT 6 17 Dec 09:43:02 09:46:06 19° 265° (W) 09:49:09 437.425
EO-79 17 Dec 09:43:35 09:45:05 12° 65° (ENE) 09:46:35 145.935-145.965
ISS 17 Dec 10:01:16 10:04:30 58° 321° (NW) 10:07:45 437.550
POLYITAN 1 17 Dec 10:05:36 10:08:46 21° 69° (ENE) 10:11:56 437.675
ESTCUBE 1 17 Dec 10:22:06 10:25:40 22° 95° (E) 10:29:12 437.505/2401.250
QB50P2 17 Dec 10:30:35 10:34:36 47° 74° (ENE) 10:38:39 145.880/145.840
DUCHIFAT 1 17 Dec 10:30:56 10:34:36 31° 72° (ENE) 10:38:17 145.980
Max Valier Satellite 17 Dec 10:33:51 10:35:47 14° 292° (WNW) 10:37:43 145.860
AIST 2D 17 Dec 10:40:48 10:43:59 33° 262° (W) 10:47:12 435.315
nSIGHT-1 17 Dec 10:45:25 10:47:44 18° 331° (NNW) 10:50:05 .
EO-88 17 Dec 10:55:12 10:56:15 11° 293° (WNW) 10:57:17 145.990 - 145.960
NANOSAT C BR1 17 Dec 10:58:39 11:02:49 83° 75° (ENE) 11:07:00 145.865
BUGSAT 1 17 Dec 11:00:35 11:02:51 15° 67° (ENE) 11:05:06 437.445
NO-84 17 Dec 11:08:52 11:10:57 14° 32° (NNE) 11:13:05 435.350 FM
LO-87 17 Dec 11:13:18 11:16:45 52° 285° (WNW) 11:20:13 145.935 - 145.965
Oscar 19 17 Dec 11:15:51 11:19:02 17° 64° (ENE) 11:22:13 437.125/150
EO-79 17 Dec 11:16:17 11:20:21 51° 260° (W) 11:24:27 145.935-145.965
YUBILEINY 17 Dec 11:35:32 11:38:46 12° 62° (ENE) 11:41:58 435.215
ISS 17 Dec 11:40:37 11:41:33 11° 338° (NNW) 11:42:30 437.550
POLYITAN 1 17 Dec 11:40:50 11:44:22 26° 263° (W) 11:47:54 437.675
VELOX 1 17 Dec 11:41:43 11:45:08 22° 95° (E) 11:48:32 145.980
SPROUT 17 Dec 11:57:07 12:01:20 61° 101° (E) 12:05:31 437.525
ESTCUBE 1 17 Dec 11:58:30 12:02:25 29° 290° (WNW) 12:06:19 437.505/2401.250
DUCHIFAT 1 17 Dec 12:07:30 12:10:17 17° 266° (W) 12:13:05 145.980
QB50P2 17 Dec 12:09:08 12:10:36 12° 268° (W) 12:12:04 145.880/145.840
AO-91 17 Dec 12:10:59 12:15:45 56° 75° (ENE) 12:20:03 145.960
Gurwin Techsat 1B 17 Dec 12:20:50 12:25:58 53° 73° (ENE) 12:31:08 435.225
DX 1 17 Dec 12:28:15 12:30:31 14° 93° (E) 12:32:45 434.975-435.025
RS-15 17 Dec 12:28:19 12:39:16 40° 106° (ESE) 12:50:10 29.354- 29.394
AO-7 17 Dec 12:32:45 12:38:11 20° 54° (NE) 12:43:37 .
BUGSAT 1 17 Dec 12:34:08 12:37:52 36° 261° (W) 12:41:36 437.445
NO-84 17 Dec 12:44:45 12:48:35 84° 227° (SW) 12:52:39 435.350 FM
Oscar 19 17 Dec 12:52:52 12:57:51 53° 259° (W) 13:02:55 437.125/150
50 SAT 17 Dec 12:54:15 12:56:53 24° 97° (E) 12:59:31 437.505
M-CUBED/EXP-1 PRIME 17 Dec 13:13:31 13:16:15 16° 61° (ENE) 13:19:05 437.505
VELOX 1 17 Dec 13:17:46 13:21:31 28° 290° (WNW) 13:25:15 145.980
YUBILEINY 17 Dec 13:28:21 13:37:11 73° 82° (E) 13:45:54 435.215
SPROUT 17 Dec 13:36:02 13:36:39 10° 296° (WNW) 13:37:15 437.525
UKube-1 17 Dec 13:39:52 13:44:07 58° 101° (E) 13:48:20 .
SO-50 17 Dec 13:41:25 13:45:41 48° 115° (ESE) 13:50:00 436.795
AO-91 17 Dec 13:50:17 13:52:17 12° 266° (W) 13:54:14 145.960
DX 1 17 Dec 14:02:45 14:06:52 43° 287° (WNW) 14:10:56 434.975-435.025
Gurwin Techsat 1B 17 Dec 14:02:51 14:06:11 17° 267° (W) 14:09:30 435.225
MOZHAYETS 4 17 Dec 14:06:32 14:10:19 24° 96° (E) 14:14:06
ITAMSAT 1 17 Dec 14:12:08 14:17:05 45° 71° (ENE) 14:22:01 435.822/435.867
AO-7 17 Dec 14:21:33 14:29:52 88° 252° (WSW) 14:38:15 .
50 SAT 17 Dec 14:27:18 14:28:32 12° 291° (WNW) 14:29:45 437.505
RS-15 17 Dec 14:39:08 14:51:14 60° 306° (NW) 15:03:18 29.354- 29.394
M-CUBED/EXP-1 PRIME 17 Dec 14:45:58 14:50:09 47° 257° (WSW) 14:54:34 437.505
BEESAT 17 Dec 14:55:52 15:00:33 55° 101° (E) 15:05:13 436.000
UKube-1 17 Dec 15:18:21 15:19:35 11° 296° (WNW) 15:20:49 .
SO-50 17 Dec 15:23:21 15:26:23 18° 312° (NW) 15:29:27 436.795
ITUPSAT 1 17 Dec 15:26:28 15:31:13 71° 285° (WNW) 15:35:59 437.325
YUBILEINY 17 Dec 15:27:03 15:32:58 21° 280° (W) 15:38:52 435.215
DOVE 4 17 Dec 15:35:47 15:40:57 59° 75° (ENE) 15:45:58 437.250
nSIGHT-1 17 Dec 15:37:29 15:40:00 20° 31° (NNE) 15:42:29 .
CUBESAT XI-V 17 Dec 15:38:05 15:42:44 57° 100° (E) 15:47:19 437.345
MOZHAYETS 4 17 Dec 15:43:27 15:47:23 28° 290° (WNW) 15:51:19
LilacSat-2 17 Dec 15:49:11 15:49:40 10° 66° (ENE) 15:50:10 437.200
ITAMSAT 1 17 Dec 15:53:04 15:56:41 19° 266° (W) 16:00:20 435.822/435.867
PCSat 17 Dec 15:55:06 15:56:46 11° 102° (ESE) 15:58:27 145.827
XW-2D 17 Dec 15:57:32 15:59:13 13° 67° (ENE) 16:00:55 145.860 - 145.880
CUTE-I 17 Dec 16:03:32 16:07:09 19° 65° (ENE) 16:10:46 437.470
O/OREOS (USA 219) 17 Dec 16:09:13 16:11:37 14° 57° (ENE) 16:13:59 437.305
XW-2B 17 Dec 16:12:28 16:15:07 18° 70° (ENE) 16:17:48 145.730 - 145.750
AO-7 17 Dec 16:19:17 16:23:33 15° 269° (W) 16:27:51 .
XW-2F 17 Dec 16:21:06 16:24:03 22° 71° (ENE) 16:27:02 145.980 - 146.000
ISS 17 Dec 16:31:16 16:34:27 46° 37° (NE) 16:37:38 437.550
BEESAT 17 Dec 16:35:18 16:37:49 14° 296° (WNW) 16:40:20 436.000
XW-2C 17 Dec 16:39:02 16:42:36 41° 74° (ENE) 16:46:12 145.795 - 145.815
CUTE 1.7 + AOD 2 17 Dec 16:53:35 16:56:06 16° 67° (ENE) 16:58:38 437.475
RS-15 17 Dec 16:58:36 17:07:06 21° 334° (NNW) 17:15:31 29.354- 29.394
KKS-1 17 Dec 17:07:41 17:12:08 85° 282° (WNW) 17:16:32 437.445
HO-68 17 Dec 17:09:37 17:16:15 42° 67° (ENE) 17:22:55 435.675
nSIGHT-1 17 Dec 17:13:16 17:16:17 38° 227° (SW) 17:19:17 .
DOVE 4 17 Dec 17:16:02 17:18:52 15° 268° (W) 17:21:39 437.250
CUBESAT XI-V 17 Dec 17:17:19 17:19:33 13° 295° (WNW) 17:21:47 437.345
NUDT-PHONESAT 17 Dec 17:18:18 17:21:59 88° 259° (WSW) 17:25:42 437.300
LilacSat-2 17 Dec 17:19:46 17:23:26 48° 261° (W) 17:27:10 437.200
KAITUO 1B 17 Dec 17:28:20 17:32:01 59° 260° (W) 17:35:45 145.475/437.950
XW-2D 17 Dec 17:29:29 17:33:00 37° 262° (W) 17:36:33 145.860 - 145.880
PCSat 17 Dec 17:34:00 17:39:24 78° 297° (WNW) 17:44:51 145.827
STARS 17 Dec 17:40:44 17:45:06 86° 103° (ESE) 17:49:27 437.465
CUTE-I 17 Dec 17:41:32 17:46:44 51° 260° (W) 17:51:58 437.470
XW-2B 17 Dec 17:45:57 17:49:05 24° 264° (W) 17:52:15 145.730 - 145.750
O/OREOS (USA 219) 17 Dec 17:46:58 17:51:19 50° 254° (WSW) 17:55:37 437.305
BEESAT 3 17 Dec 17:47:58 17:51:02 22° 111° (ESE) 17:54:08 437.485
XW-2F 17 Dec 17:55:13 17:58:03 20° 265° (W) 18:00:54 145.980 - 146.000
SEEDS 17 Dec 17:57:30 18:01:35 50° 75° (ENE) 18:05:42 437.485
